GFSGL_500_spd_132.txt.gz
Wind_Speed
39 40 42 44 47 48 50 51 53 55 57 58 60 61 62 63 64 66 66 67 67 67 68 68 67 66 66 66 66 66 66 64 62 60 54 50 50 51 51 52 53 49 49
42 44 47 48 50 52 54 56 58 60 61 63 65 66 67 68 69 70 71 71 71 72 73 74 75 76 76 75 73 71 70 68 69 67 64 60 56 53 51 49 51 56 52
45 48 49 51 53 56 58 60 62 64 65 65 66 67 68 69 70 71 72 73 73 73 73 74 73 71 70 69 67 66 64 64 65 66 67 65 61 58 58 57 53 54 56
46 48 51 53 55 58 59 61 62 63 64 66 67 66 63 62 63 63 63 64 64 63 62 61 60 58 55 55 55 54 54 54 56 58 61 63 65 57 56 56 51 51 55
51 52 54 57 60 61 62 62 63 63 62 61 59 56 55 55 54 55 56 56 58 58 57 56 56 56 55 53 52 51 50 49 50 55 56 57 57 61 57 53 51 50 50
58 60 62 63 63 63 61 56 54 51 51 50 50 50 50 52 55 56 55 53 54 54 55 55 56 55 56 57 57 56 57 57 55 56 55 56 54 52 54 49 46 46 46
63 63 64 63 60 56 51 47 46 45 46 48 49 50 50 49 49 49 53 55 54 52 52 52 55 54 55 56 57 56 57 57 55 52 52 51 53 49 47 36 46 47 42
64 61 58 53 49 46 44 44 46 49 48 46 43 44 46 48 50 50 51 53 55 56 56 58 57 55 52 52 51 50 49 52 52 53 48 43 44 41 33 34 43 42 40
53 48 45 41 40 42 44 46 44 40 40 42 44 44 44 45 49 52 55 57 58 58 61 61 59 59 55 54 53 52 52 50 48 51 48 44 38 38 35 36 41 40 38
38 37 38 40 43 43 39 36 39 42 42 40 43 46 48 49 49 51 55 58 59 61 62 60 58 57 56 54 52 50 48 47 47 47 51 46 43 38 33 34 40 43 42
34 36 39 39 34 34 37 40 40 38 42 42 44 47 48 51 54 59 61 62 62 59 56 53 53 52 50 51 52 48 48 47 46 44 44 45 45 37 34 33 35 44 45
35 34 30 31 35 37 36 34 37 39 41 44 46 50 54 59 60 60 60 60 58 53 50 50 49 50 50 51 51 48 46 45 44 45 43 42 43 39 37 34 34 36 45
24 27 30 31 32 32 34 36 38 42 46 50 54 58 58 59 59 58 57 55 52 50 47 45 44 43 42 40 41 42 41 40 40 46 45 45 40 42 38 35 33 36 40
26 27 26 27 30 33 34 38 42 48 51 54 55 56 54 53 52 51 50 49 47 46 44 40 39 37 33 30 32 32 31 33 35 37 42 42 39 37 33 30 34 39 34
23 21 24 28 28 30 35 41 44 49 53 51 51 51 50 48 47 46 45 45 45 44 38 33 30 27 25 26 22 22 27 28 30 30 31 30 31 31 30 31 35 36 36
19 22 22 23 28 33 35 39 46 50 50 51 51 46 43 43 45 45 42 38 35 34 28 25 21 20 19 17 18 22 25 28 24 24 26 27 29 31 32 29 35 33 35
19 17 22 26 30 31 36 42 45 48 48 48 44 46 46 43 39 35 31 27 23 18 16 14 14 16 20 19 15 20 18 19 22 21 20 20 23 26 35 40 36 32 33
18 21 25 29 29 32 40 46 46 47 44 40 41 39 39 35 29 22 15 10 8 7 8 11 12 12 10 13 13 15 17 17 18 19 19 18 18 23 25 21 24 32 34
20 24 27 27 29 35 41 44 44 43 39 37 35 35 34 26 18 15 12 8 3 1 5 9 10 18 14 13 15 18 17 17 18 21 22 17 18 21 21 19 26 30 30
20 25 25 26 30 36 41 40 42 37 36 34 33 28 27 20 18 15 13 9 8 9 15 17 14 13 14 16 17 20 23 24 25 25 23 24 28 31 33 32 33 34 29
18 22 23 27 30 34 37 37 37 35 32 32 29 25 23 18 16 16 11 8 12 12 12 12 14 19 21 19 20 22 24 25 24 23 32 35 39 37 34 30 30 35 30
16 21 23 26 32 31 35 36 35 34 31 29 25 22 19 19 19 21 19 19 16 15 18 21 22 20 21 20 21 28 28 27 28 37 34 36 36 32 41 27 32 30 25
14 18 22 24 27 29 32 35 33 32 29 26 21 21 18 17 16 17 14 16 18 21 17 16 21 19 17 21 26 33 32 31 35 35 37 40 38 44 29 32 26 26 26
14 17 20 22 26 26 29 32 33 28 25 24 21 16 17 16 14 10 11 14 17 15 14 13 24 22 21 27 33 33 33 28 23 36 35 29 29 21 25 21 22 19 18
13 16 18 21 24 26 27 29 30 30 24 19 19 17 16 13 11 8 6 10 12 14 12 13 17 23 26 25 32 29 30 25 33 35 28 16 30 25 22 30 22 21 19
12 16 18 19 23 25 27 28 28 30 26 19 16 14 14 12 9 6 2 4 11 14 14 13 16 17 17 31 32 29 31 31 25 30 25 21 22 27 23 25 22 22 19

GFSGL_500_spd_135.txt.gz
Wind_Speed
41 42 44 46 45 46 47 49 51 54 55 58 60 63 63 63 65 66 67 67 65 64 64 65 63 63 63 64 64 64 63 64 64 61 63 62 60 58 54 51 48 47 48
35 38 42 45 46 49 51 53 55 56 58 59 62 64 66 69 70 70 70 70 72 72 72 71 67 65 66 64 65 64 65 66 67 61 58 60 61 60 57 55 56 53 46
40 42 45 46 48 49 51 52 54 56 58 60 62 64 66 66 67 70 71 71 71 72 71 69 68 68 66 63 62 60 55 53 52 52 53 53 52 53 56 57 56 54 55
38 43 46 47 50 53 54 56 58 58 59 61 63 65 64 65 66 66 65 65 63 63 62 62 60 58 55 52 53 53 50 49 47 45 48 48 49 44 46 49 53 58 54
46 51 53 57 59 60 62 64 64 64 65 65 62 60 57 55 56 56 56 55 55 54 54 54 55 56 54 49 50 49 49 49 50 50 51 49 48 45 42 46 50 48 54
54 58 61 66 68 69 71 70 69 66 62 59 56 53 49 49 51 51 52 53 54 55 53 51 49 50 51 51 51 49 47 48 49 51 50 51 52 51 47 47 51 47 48
58 61 63 64 64 63 63 61 58 55 50 45 44 46 48 50 52 49 48 48 48 49 50 49 48 48 50 51 50 52 54 53 53 51 49 51 51 52 49 49 52 50 46
55 53 51 48 48 49 49 46 41 38 40 43 45 44 42 43 47 49 49 48 47 48 49 51 52 53 53 54 55 55 54 54 53 51 48 45 44 45 47 46 46 43 39
46 46 45 42 39 36 35 36 39 40 40 38 40 43 44 44 46 48 51 51 51 53 54 52 52 54 56 58 57 57 56 54 52 51 49 48 48 41 41 38 32 31 34
43 43 43 41 40 39 39 39 34 35 37 37 38 41 45 45 46 51 52 52 52 54 56 57 58 59 59 59 58 56 54 51 51 50 48 46 45 42 40 36 29 26 27
40 41 41 40 38 33 30 34 34 33 35 38 40 43 46 49 51 55 59 60 61 62 61 59 59 59 58 57 55 51 49 48 48 47 47 47 44 41 37 37 32 29 34
38 39 35 32 31 34 34 32 33 37 39 40 44 46 50 53 55 55 57 57 55 53 51 51 51 51 49 48 46 45 44 45 47 47 45 43 41 37 36 38 36 31 28
33 31 32 34 34 32 31 35 38 39 41 44 46 49 51 51 54 55 54 52 51 50 48 45 43 42 41 38 40 41 40 40 41 43 42 40 36 34 35 35 37 34 29
30 32 35 32 30 32 35 34 37 41 42 47 50 52 51 50 50 48 47 46 46 45 43 42 40 38 38 37 34 33 32 31 30 31 34 35 33 35 35 35 38 33 29
29 30 27 27 29 29 34 38 38 42 49 51 51 51 48 44 43 43 43 42 41 40 37 35 34 33 29 25 24 22 22 24 25 23 27 28 30 35 38 34 32 32 30
26 23 25 26 28 31 33 35 43 46 50 49 49 45 41 41 41 39 36 33 29 28 25 24 21 18 18 16 14 13 13 17 17 18 22 23 27 31 37 33 34 32 34
19 22 24 26 29 29 32 36 40 44 45 44 42 41 41 36 33 29 28 23 18 13 9 8 9 9 9 8 8 10 13 16 18 22 22 28 29 26 28 31 31 31 29
19 22 23 26 26 29 34 37 37 38 37 35 37 37 33 29 27 25 20 18 14 10 5 1 6 4 4 8 11 13 16 25 25 25 22 21 23 27 29 30 28 28 28
18 20 23 23 24 29 33 33 36 35 34 34 33 31 29 26 21 21 18 16 13 6 4 2 6 4 8 13 12 15 16 17 18 20 21 22 23 25 27 31 35 38 27
14 18 22 23 25 29 31 33 34 32 33 32 30 29 28 27 23 15 12 14 18 16 12 13 11 9 8 7 7 11 13 18 21 21 20 23 23 25 27 24 31 30 30
12 15 20 23 21 26 29 33 32 30 31 32 29 27 25 25 24 17 13 12 13 11 11 10 9 11 13 14 11 12 16 20 20 21 22 24 20 26 26 30 33 36 35
10 14 19 23 22 25 28 32 33 32 28 29 28 26 24 20 19 18 17 16 16 16 15 14 13 14 13 13 10 8 12 20 23 25 27 33 32 36 31 38 39 36 33
11 13 18 22 23 24 27 30 32 32 29 24 24 24 23 21 16 13 14 17 18 17 15 13 10 8 7 5 10 11 19 24 29 32 33 34 37 37 40 40 34 34 34
12 14 17 21 23 24 25 29 30 34 25 24 21 22 20 20 17 10 6 9 13 15 10 7 8 9 9 15 19 19 26 25 26 35 33 36 41 41 36 34 36 39 32
12 14 17 20 22 24 24 25 26 37 31 22 22 19 18 18 15 10 4 3 5 11 11 10 6 10 13 22 25 24 20 20 26 30 27 33 28 36 35 37 30 28 26
13 15 17 19 20 22 25 26 27 25 31 28 24 21 19 16 15 10 4 2 3 5 8 7 9 9 17 21 21 16 17 26 27 27 27 35 30 28 33 28 27 26 24

GFSGL_500_spd_138.txt.gz
Wind_Speed
37 37 38 42 45 45 45 47 49 50 52 54 56 57 59 61 63 64 65 66 67 68 70 70 71 72 71 71 69 67 66 64 63 58 61 60 59 56 54 54 55 53 50
30 32 35 41 45 46 48 51 53 55 55 57 59 61 63 66 68 68 68 70 72 74 75 77 77 78 77 75 72 70 68 67 68 65 66 64 63 58 59 60 56 51 51
32 36 40 43 46 48 50 53 55 57 58 59 63 65 66 68 69 70 71 72 75 77 79 79 79 79 76 73 71 68 63 60 58 59 56 51 49 48 48 52 52 53 54
33 37 42 46 49 52 55 58 61 64 67 70 72 73 75 75 74 72 72 73 74 72 70 69 66 64 63 61 59 56 53 51 50 51 51 48 44 41 43 41 44 45 45
37 41 46 51 56 59 61 65 69 72 74 77 78 78 77 75 72 70 69 65 59 57 55 55 54 53 52 52 53 52 50 49 47 46 47 46 44 44 43 43 44 43 45
44 47 50 53 56 60 64 66 65 63 62 63 64 64 61 59 54 51 49 50 51 53 55 54 52 51 49 48 48 48 46 46 46 44 42 43 42 45 44 45 48 50 48
50 53 54 54 55 52 48 47 46 46 45 43 42 42 42 44 48 49 49 48 48 48 49 51 52 52 51 50 48 48 47 46 46 46 47 46 45 44 47 47 47 51 51
54 50 49 48 45 42 42 41 40 40 40 40 40 40 39 40 43 46 48 48 49 50 51 51 52 52 52 53 53 53 52 52 51 50 49 46 46 44 44 46 44 46 50
52 49 46 45 44 43 44 43 43 41 37 35 37 41 41 41 43 46 48 49 48 50 52 54 53 53 54 55 55 54 51 51 53 54 53 52 51 45 44 44 42 42 42
47 45 44 43 43 44 42 38 35 36 38 38 37 40 44 45 45 48 51 52 53 55 57 60 62 62 62 62 61 59 57 58 58 58 58 56 54 49 45 44 42 41 40
43 41 40 40 39 36 33 36 36 35 36 40 42 42 45 48 49 51 55 58 59 59 57 57 58 58 58 59 60 60 59 57 57 56 55 53 50 46 44 42 39 36 35
39 38 38 38 36 37 37 36 34 37 40 40 43 43 46 53 55 55 55 55 55 54 53 53 52 53 52 51 51 51 49 48 47 46 45 45 44 41 40 38 38 34 32
38 38 37 34 34 35 33 34 38 38 42 43 44 47 49 49 51 51 51 51 51 52 51 50 50 49 45 43 44 43 42 40 39 39 39 39 40 41 40 38 36 33 34
36 32 28 29 31 30 33 33 37 38 39 42 45 47 46 44 44 45 44 43 43 44 45 44 44 43 43 42 38 35 34 34 34 35 34 35 36 36 37 34 30 32 34
25 22 25 26 25 29 31 34 34 38 40 42 43 41 38 40 41 40 39 39 39 38 36 33 31 30 29 28 27 27 26 27 26 25 24 24 27 30 31 29 29 30 34
21 23 21 23 26 27 28 32 38 38 42 39 38 36 38 40 38 35 34 33 30 29 27 24 18 14 12 12 14 14 15 16 16 16 21 21 24 28 31 32 32 29 33
21 20 21 24 24 23 25 30 32 40 38 36 35 37 38 39 38 33 32 30 28 24 20 16 12 6 2 4 7 8 8 9 8 11 13 14 21 26 28 30 34 31 28
18 18 22 22 21 22 25 28 32 34 31 32 33 34 35 36 34 27 25 29 29 15 14 11 6 7 3 1 3 3 4 6 11 10 14 18 20 25 26 31 31 29 28
15 18 20 21 20 21 25 27 32 34 31 29 29 33 32 32 32 29 25 24 23 17 13 10 8 8 6 3 3 6 6 14 16 19 18 24 25 25 27 28 27 28 29
15 17 17 20 21 21 24 26 31 34 32 28 27 27 29 30 30 30 27 25 19 16 14 14 13 10 8 8 5 4 6 7 12 14 14 15 21 26 28 31 29 29 30
13 13 15 19 22 22 23 24 28 35 32 28 26 26 26 26 25 25 25 26 24 18 18 19 19 18 15 13 11 8 7 11 13 12 12 17 23 24 27 31 32 30 28
12 12 15 18 22 22 21 23 23 34 37 27 25 25 25 24 20 19 23 26 24 20 19 20 19 20 18 14 12 8 9 10 12 13 15 17 21 25 30 35 31 35 28
12 11 14 17 21 23 22 23 26 30 32 28 26 24 22 22 19 15 17 21 24 22 20 19 18 16 14 12 13 10 7 11 12 14 19 19 19 27 29 29 34 30 29
12 13 14 16 21 23 24 25 24 23 28 32 27 25 22 18 18 13 12 15 19 20 18 17 15 15 15 17 19 16 13 13 18 21 24 23 29 35 39 39 37 32 33
13 14 15 17 20 22 23 25 23 22 24 27 32 25 22 21 14 11 8 8 11 14 14 13 8 10 17 17 16 15 18 22 26 27 34 34 37 38 42 40 35 30 27
13 14 15 17 19 21 20 20 20 19 21 23 29 30 21 21 16 11 5 4 4 6 10 10 7 9 14 16 14 13 15 18 22 31 30 30 26 26 26 29 31 28 30

GFSGL_500_spd_141.txt.gz
Wind_Speed
39 42 43 45 47 46 45 46 46 48 50 52 55 57 59 62 63 66 66 67 67 67 67 66 67 66 68 69 69 69 70 65 65 62 65 71 70 67 62 62 60 58 52
35 37 39 38 38 40 44 47 50 52 55 56 59 63 65 67 69 71 72 73 73 74 75 75 74 73 73 73 72 74 76 72 72 67 66 67 64 62 60 60 60 62 62
32 31 31 32 37 41 45 49 51 54 57 60 65 69 72 76 78 80 82 82 83 83 82 80 78 78 77 76 78 78 73 67 63 59 57 53 52 52 47 45 46 48 50
28 29 30 35 40 45 50 54 57 59 62 65 69 73 77 81 84 86 88 88 87 86 84 83 81 78 76 71 64 58 55 54 52 49 47 46 45 45 43 41 44 46 47
27 31 35 39 44 48 53 57 59 59 61 63 62 62 62 63 63 64 64 65 67 67 66 65 63 59 55 54 54 56 57 55 52 49 47 45 42 43 41 39 41 41 44
32 35 39 45 49 54 57 56 56 56 52 51 53 53 52 51 51 50 48 46 47 48 50 52 52 52 52 52 51 50 50 50 48 47 44 42 37 37 39 41 43 42 42
38 42 46 51 56 57 54 52 50 48 50 51 52 51 50 47 46 45 45 45 45 46 48 48 49 50 51 51 51 51 51 50 48 45 43 41 39 37 38 37 40 42 42
43 45 49 56 55 53 50 47 45 47 51 51 47 45 44 47 48 46 45 47 48 49 49 49 49 50 51 51 52 52 52 52 52 52 50 46 45 43 43 42 42 44 42
46 50 55 55 52 50 47 44 45 46 42 41 43 44 44 45 47 48 49 49 49 50 53 55 55 56 57 57 58 58 58 56 55 54 54 52 48 44 41 41 40 42 41
51 54 58 54 50 48 45 43 44 43 43 41 40 43 45 45 48 49 50 52 56 58 58 58 60 61 62 62 62 62 61 60 62 61 60 57 53 51 49 47 45 45 44
53 56 55 49 47 45 43 43 40 40 37 38 39 42 45 46 49 52 53 53 54 53 52 52 53 54 55 57 59 59 59 59 58 57 58 60 59 58 55 53 51 48 46
53 54 50 46 43 43 39 36 35 34 35 38 40 41 44 46 48 48 48 51 52 50 48 48 48 50 52 53 55 54 52 50 49 51 49 48 51 54 54 52 47 45 43
52 49 45 40 37 30 29 29 32 34 35 36 38 40 42 43 43 47 49 49 48 44 45 46 48 49 48 48 48 45 45 44 40 39 40 42 42 41 43 43 41 40 38
47 46 36 28 26 26 25 29 31 30 34 37 39 37 37 38 41 45 47 45 42 41 44 43 42 40 40 37 31 30 31 33 33 32 33 35 35 33 33 35 35 35 32
46 34 25 23 23 24 27 28 27 31 34 37 34 34 34 36 40 45 43 40 38 39 40 36 34 32 28 21 17 16 18 22 26 27 27 27 28 29 30 31 31 31 29
36 24 22 21 21 24 26 26 27 32 38 40 36 33 35 36 38 39 42 38 35 38 27 24 24 20 20 16 11 7 8 10 13 15 17 18 19 20 24 29 29 29 29
26 21 21 20 21 22 22 21 28 34 39 38 37 34 34 34 37 37 37 37 35 31 28 21 17 19 17 15 13 8 5 3 3 8 6 11 17 18 19 22 30 29 28
21 20 19 18 21 20 20 21 22 25 34 37 37 33 33 33 34 32 35 36 31 28 27 19 16 17 15 12 9 10 9 4 2 3 5 6 10 13 19 23 27 28 27
20 19 17 18 19 20 20 21 22 25 32 38 36 33 32 31 31 27 32 32 29 26 25 20 16 16 17 16 12 10 3 4 4 2 1 4 11 16 20 23 23 29 31
18 17 16 16 17 19 20 22 23 26 31 35 34 30 28 29 28 24 30 30 26 24 22 21 20 22 20 17 13 11 11 4 1 6 16 17 16 16 19 21 26 29 28
17 15 13 13 15 19 21 22 23 25 27 32 34 29 25 26 27 23 24 28 25 24 23 20 24 28 20 20 15 12 10 8 10 13 21 22 19 25 23 27 30 28 28
14 13 14 13 15 18 21 22 23 24 26 29 32 30 26 24 24 24 21 24 25 24 23 22 21 21 22 23 18 14 10 8 9 11 12 15 20 24 25 25 28 28 28
15 13 13 13 15 18 21 22 23 23 24 24 30 33 26 24 20 21 18 18 23 23 23 23 21 19 17 20 13 16 11 6 6 10 12 16 19 19 24 25 26 26 25
13 13 13 13 15 18 20 22 22 22 22 24 27 30 27 24 19 17 17 14 18 18 18 20 22 23 21 18 14 15 17 11 4 3 7 11 19 25 25 24 24 20 24
15 13 12 13 14 16 18 18 18 18 19 22 24 26 26 24 18 13 14 11 13 15 13 14 13 19 19 21 20 19 18 16 10 7 6 8 17 22 26 27 24 19 28
16 14 11 12 13 14 13 12 13 15 17 19 23 25 28 25 20 12 12 10 7 9 9 11 9 14 16 12 10 12 13 20 22 22 20 26 28 27 25 23 22 25 26